Valley City, ND

1:48 PM CDT on October 23, 2019 (GMT -0500)
Valley City

Weather History for KBAC - September, 2019

Change the Weather History Date:

Sunday, September 22, 2019

  Actual Average (WUND) Record (WUND)
Temperature  
Mean Temperature 58 °F -  
Max Temperature 68 °F - - (-1)
Min Temperature 48 °F - - (-1)
Degree Days  
Heating Degree Days 7    
Growing Degree Days 8 (Base 50)    
Moisture  
Dew Point 51 °F    
Average Humidity 84    
Maximum Humidity 100    
Minimum Humidity 46    
Precipitation  
Precipitation 0.00 in - - ()
Sea Level Pressure  
Sea Level Pressure 29.88 in    
Wind  
Wind Speed 9 mph (West)    
Max Wind Speed 16 mph    
Max Gust Speed 22 mph    
Visibility 10 miles    
Events      
Averages and records for this station are not official NWS values.
T = Trace of Precipitation, MM = Missing Value Source: NWS Daily Summary

Daily Weather History Graph

Daily Weather History Graph

Search for Another Location

Airport or City:

Astronomy

Sep. 22, 2019 Rise Set
Actual Time 7:18 AM CDT 7:30 PM CDT
Civil Twilight 6:48 AM CDT 8:00 PM CDT
Nautical Twilight 6:12 AM CDT 8:36 PM CDT
Astronomical Twilight 5:35 AM CDT 9:12 PM CDT
Moon No Moon Rise 3:51 PM CDT (9/22)
Length of Visible Light 13h 12m
Length of Day
12h 11m
Last Quarter, 44% of the Moon is Illuminated
Sep 22
Last Quarter
Sep 28
New
Oct 5
First Quarter
Oct 13
Full
Oct 21
Last Quarter

Hourly Weather History & Observations

Time (CDT) Temp. Dew Point Humidity Pressure Visibility Wind Dir Wind Speed Gust Speed Precip Events Conditions
12:15 AM 53.6 °F 53.6 °F 100% 29.86 in 10.0 mi WNW 11.5 mph - N/A   Clear
12:35 AM 53.6 °F 53.6 °F 100% 29.87 in 10.0 mi WNW 10.4 mph - N/A   Clear
12:55 AM 51.8 °F 51.8 °F 100% 29.87 in 10.0 mi WNW 10.4 mph - N/A   Clear
1:15 AM 51.8 °F 51.8 °F 100% 29.87 in 10.0 mi WNW 9.2 mph - N/A   Clear
1:35 AM 51.8 °F 51.8 °F 100% 29.87 in 10.0 mi West 9.2 mph - N/A   Clear
1:55 AM 50.0 °F 50.0 °F 100% 29.88 in 10.0 mi West 9.2 mph - N/A   Clear
2:15 AM 51.8 °F 51.8 °F 100% 29.88 in 10.0 mi West 9.2 mph - N/A   Clear
2:35 AM 51.8 °F 51.8 °F 100% 29.88 in 10.0 mi West 6.9 mph - N/A   Clear
2:55 AM - - N/A% 29.88 in 10.0 mi West 8.1 mph - N/A   Clear
3:15 AM 50.0 °F 50.0 °F 100% 29.87 in 10.0 mi West 8.1 mph - N/A   Clear
3:35 AM - - N/A% 29.86 in 10.0 mi West 8.1 mph - N/A   Clear
3:55 AM 51.8 °F 51.8 °F 100% 29.87 in 10.0 mi West 8.1 mph - N/A   Clear
4:15 AM 50.0 °F 50.0 °F 100% 29.89 in 10.0 mi West 10.4 mph - N/A   Clear
4:35 AM 51.8 °F 51.8 °F 100% 29.89 in 10.0 mi West 6.9 mph - N/A   Clear
4:55 AM 50.0 °F 50.0 °F 100% 29.89 in 10.0 mi West 6.9 mph - N/A   Clear
5:15 AM 50.0 °F 50.0 °F 100% 29.90 in 10.0 mi WSW 4.6 mph - N/A   Clear
5:35 AM 48.2 °F 48.2 °F 100% 29.90 in 10.0 mi WSW 5.8 mph - N/A   Clear
5:55 AM 48.2 °F 48.2 °F 100% 29.91 in 10.0 mi SW 6.9 mph - N/A   Clear
6:15 AM 48.2 °F 48.2 °F 100% 29.91 in 10.0 mi WSW 9.2 mph - N/A   Clear
6:35 AM 50.0 °F 50.0 °F 100% 29.90 in 10.0 mi WSW 11.5 mph - N/A   Clear
6:55 AM 50.0 °F 50.0 °F 100% 29.90 in 10.0 mi WSW 10.4 mph - N/A   Clear
7:15 AM 50.0 °F 50.0 °F 100% 29.90 in 10.0 mi WSW 11.5 mph - N/A   Clear
7:35 AM 50.0 °F 50.0 °F 100% 29.90 in 10.0 mi West 10.4 mph - N/A   Clear
7:55 AM 50.0 °F 50.0 °F 100% 29.89 in 10.0 mi West 10.4 mph - N/A   Clear
8:15 AM - - N/A% 29.89 in 10.0 mi West 10.4 mph - N/A   Clear
8:35 AM 51.8 °F 51.8 °F 100% 29.90 in 10.0 mi West 11.5 mph - N/A   Clear
8:55 AM 51.8 °F 51.8 °F 100% 29.90 in 10.0 mi West 11.5 mph - N/A   Clear
9:15 AM 53.6 °F 53.6 °F 100% 29.90 in 10.0 mi West 12.7 mph - N/A   Clear
9:35 AM 53.6 °F 53.6 °F 100% 29.90 in 10.0 mi West 10.4 mph - N/A   Clear
9:55 AM 55.4 °F 55.4 °F 100% 29.91 in 10.0 mi West 8.1 mph - N/A   Clear
10:15 AM 55.4 °F 55.4 °F 100% 29.91 in 10.0 mi West 6.9 mph - N/A   Clear
10:35 AM 57.2 °F 55.4 °F 94% 29.91 in 10.0 mi Variable 4.6 mph - N/A   Clear
10:55 AM 57.2 °F 55.4 °F 94% 29.91 in 10.0 mi West 8.1 mph - N/A   Clear
11:15 AM 59.0 °F 55.4 °F 88% 29.91 in 10.0 mi West 9.2 mph - N/A   Clear
11:35 AM 60.8 °F 53.6 °F 77% 29.90 in 10.0 mi WNW 8.1 mph - N/A   Clear
11:55 AM 62.6 °F 53.6 °F 72% 29.90 in 10.0 mi West 8.1 mph - N/A   Clear
12:15 PM 62.6 °F 53.6 °F 72% 29.89 in 10.0 mi West 10.4 mph - N/A   Clear
12:35 PM 62.6 °F 51.8 °F 68% 29.89 in 10.0 mi WSW 10.4 mph - N/A   Clear
12:55 PM 64.4 °F 48.2 °F 56% 29.89 in 10.0 mi West 9.2 mph 16.1 mph N/A   Clear
1:15 PM 66.2 °F 46.4 °F 49% 29.89 in 10.0 mi West 13.8 mph - N/A   Partly Cloudy
1:35 PM 66.2 °F 46.4 °F 49% 29.88 in 10.0 mi WNW 16.1 mph - N/A   Scattered Clouds
1:55 PM 66.2 °F 46.4 °F 49% 29.88 in 10.0 mi WNW 13.8 mph - N/A   Scattered Clouds
2:15 PM 64.4 °F 44.6 °F 49% 29.88 in 10.0 mi WNW 15.0 mph 21.9 mph N/A   Partly Cloudy
2:35 PM 68.0 °F 46.4 °F 46% 29.87 in 10.0 mi WNW 13.8 mph 21.9 mph N/A   Partly Cloudy
3:15 PM 68.0 °F 46.4 °F 46% 29.87 in 10.0 mi WNW 12.7 mph - N/A   Mostly Cloudy
3:35 PM 68.0 °F 46.4 °F 46% 29.86 in 10.0 mi WNW 13.8 mph 20.7 mph N/A   Scattered Clouds
3:55 PM 68.0 °F 46.4 °F 46% 29.86 in 10.0 mi WNW 13.8 mph 21.9 mph N/A   Partly Cloudy
4:15 PM 66.2 °F 46.4 °F 49% 29.86 in 10.0 mi West 11.5 mph 18.4 mph N/A   Clear
4:35 PM 66.2 °F 46.4 °F 49% 29.86 in 10.0 mi NW 11.5 mph 19.6 mph N/A   Clear
4:55 PM 68.0 °F 48.2 °F 49% 29.86 in 10.0 mi NW 8.1 mph - N/A   Clear
5:15 PM 68.0 °F 48.2 °F 49% 29.86 in 10.0 mi WNW 11.5 mph - N/A   Partly Cloudy
5:35 PM 66.2 °F 48.2 °F 52% 29.86 in 10.0 mi West 8.1 mph 15.0 mph N/A   Partly Cloudy
5:55 PM 66.2 °F 48.2 °F 52% 29.86 in 10.0 mi WNW 6.9 mph - N/A   Clear
6:15 PM 64.4 °F 48.2 °F 56% 29.86 in 10.0 mi West 5.8 mph - N/A   Clear
6:35 PM 64.4 °F 50.0 °F 59% 29.86 in 10.0 mi West 4.6 mph - N/A   Clear
6:55 PM 62.6 °F 53.6 °F 72% 29.86 in 10.0 mi Calm Calm - N/A   Scattered Clouds
7:15 PM 60.8 °F 53.6 °F 77% 29.86 in 10.0 mi SW 3.5 mph - N/A   Partly Cloudy
7:35 PM 59.0 °F 55.4 °F 88% 29.86 in 10.0 mi SW 3.5 mph - N/A   Mostly Cloudy
7:55 PM 57.2 °F 53.6 °F 88% 29.86 in 10.0 mi SW 5.8 mph - N/A   Mostly Cloudy
8:15 PM 57.2 °F 53.6 °F 88% 29.87 in 10.0 mi SSW 3.5 mph - N/A   Scattered Clouds
8:35 PM 55.4 °F 53.6 °F 94% 29.87 in 10.0 mi SW 5.8 mph - N/A   Mostly Cloudy
8:55 PM 53.6 °F 53.6 °F 100% 29.88 in 10.0 mi SW 4.6 mph - N/A   Mostly Cloudy
9:15 PM 55.4 °F 53.6 °F 94% 29.88 in 10.0 mi SW 6.9 mph - N/A   Partly Cloudy
9:35 PM 55.4 °F 53.6 °F 94% 29.88 in 10.0 mi WSW 6.9 mph - N/A   Clear
9:55 PM 53.6 °F 51.8 °F 94% 29.89 in 10.0 mi WSW 8.1 mph - N/A   Clear
10:15 PM 53.6 °F 53.6 °F 100% 29.89 in 10.0 mi WSW 10.4 mph - N/A   Clear
10:35 PM 53.6 °F 53.6 °F 100% 29.89 in 10.0 mi WSW 9.2 mph - N/A   Clear
10:55 PM 55.4 °F 53.6 °F 94% 29.89 in 10.0 mi WSW 10.4 mph - N/A   Clear
11:15 PM 53.6 °F 53.6 °F 100% 29.89 in 10.0 mi WSW 9.2 mph - N/A   Clear
11:35 PM 55.4 °F 53.6 °F 94% 29.89 in 10.0 mi WSW 9.2 mph - N/A   Scattered Clouds
11:55 PM 55.4 °F 53.6 °F 94% 29.89 in 10.0 mi WSW 10.4 mph - N/A   Mostly Cloudy